Voltar ao catálogo

STARLINK-35941

AtivoComunicaçõesVLEO
NORAD 66583·PAYLOAD·🇺🇸 United States

Lançado Nov 21, 2025 de Cape Canaveral Space Force Station

Loading…

Próximas Passagens (próximas 24 horas)

TLE

AtualizadoSource: CelesTrak SupGP

Época: Sep 15, 2026, 03:04 UTC

1 66583C 25268AC  26258.12826389  .00041113  00000+0  14891-2 0  2585
2 66583  43.0031 356.8868 0001261 266.2967 165.9621 15.27558441    16

Acompanhe STARLINK-35941 em tempo real com AllMySat

Download on the App Store